Radiation Dose at Monitoring Post of Fukushima Daini Nuclear Power Station
Date,Time,MP-1(microSv/h),MP-2(microSv/h),MP-3(microSv/h),MP-4(microSv/h),MP-5(microSv/h),MP-6(microSv/h),MP-7(microSv/h),Wind Direction,Wind Velocity(m/s),Rain
2022/05/03,00:00,0.147,0.137,0.214,0.208,0.218,0.118,0.077,northwest,3.6,No
2022/05/03,00:10,0.147,0.137,0.214,0.208,0.217,0.118,0.076,northwest,5.4,No
2022/05/03,00:20,0.147,0.138,0.215,0.208,0.215,0.119,0.076,northwest,6.3,No
2022/05/03,00:30,0.148,0.137,0.214,0.207,0.215,0.118,0.076,northwest,5.4,No
2022/05/03,00:40,0.147,0.136,0.214,0.209,0.215,0.118,0.076,northwest,4.7,No
2022/05/03,00:50,0.147,0.137,0.215,0.208,0.217,0.118,0.076,northwest,4.2,No
2022/05/03,01:00,0.147,0.137,0.214,0.208,0.215,0.117,0.076,northwest,3.9,No
2022/05/03,01:10,0.147,0.137,0.213,0.208,0.216,0.117,0.076,northwest,4.1,No
2022/05/03,01:20,0.147,0.137,0.214,0.208,0.216,0.118,0.075,north-northwest,4.0,No
2022/05/03,01:30,0.147,0.137,0.215,0.207,0.215,0.118,0.077,north-northwest,2.4,No
2022/05/03,01:40,0.148,0.136,0.214,0.207,0.216,0.118,0.076,north,1.8,No
2022/05/03,01:50,0.147,0.138,0.215,0.209,0.216,0.118,0.076,north-northwest,1.7,No
2022/05/03,02:00,0.147,0.137,0.215,0.208,0.216,0.119,0.076,north-northwest,2.1,No
2022/05/03,02:10,0.147,0.137,0.214,0.208,0.214,0.117,0.076,northwest,1.3,No
2022/05/03,02:20,0.148,0.138,0.214,0.208,0.215,0.118,0.076,northwest,2.1,No
2022/05/03,02:30,0.147,0.138,0.214,0.209,0.216,0.118,0.076,north-northwest,2.5,No
2022/05/03,02:40,0.148,0.136,0.215,0.208,0.216,0.117,0.075,north-northwest,2.6,No
2022/05/03,02:50,0.147,0.137,0.215,0.208,0.215,0.119,0.076,north-northwest,2.6,No
2022/05/03,03:00,0.148,0.138,0.214,0.209,0.216,0.117,0.076,north,1.8,No
2022/05/03,03:10,0.147,0.138,0.215,0.209,0.216,0.118,0.076,north,2.6,No
2022/05/03,03:20,0.147,0.136,0.215,0.209,0.216,0.119,0.076,north,2.1,No
2022/05/03,03:30,0.148,0.137,0.216,0.209,0.216,0.118,0.077,north,1.4,No
2022/05/03,03:40,0.148,0.137,0.216,0.208,0.216,0.119,0.076,north-northwest,2.0,No
2022/05/03,03:50,0.147,0.137,0.214,0.208,0.216,0.118,0.076,northwest,3.2,No
2022/05/03,04:00,0.148,0.137,0.215,0.209,0.215,0.118,0.076,northwest,1.8,No
2022/05/03,04:10,0.147,0.137,0.213,0.208,0.217,0.118,0.076,north-northwest,2.2,No
2022/05/03,04:20,0.147,0.138,0.216,0.210,0.215,0.118,0.076,north-northwest,1.5,No
2022/05/03,04:30,0.148,0.137,0.215,0.209,0.215,0.118,0.076,north-northwest,3.3,No
2022/05/03,04:40,0.148,0.137,0.215,0.209,0.215,0.118,0.076,northwest,2.6,No
2022/05/03,04:50,0.147,0.138,0.215,0.208,0.216,0.118,0.077,northwest,3.0,No
2022/05/03,05:00,0.146,0.137,0.215,0.209,0.215,0.119,0.076,northwest,2.9,No
2022/05/03,05:10,0.148,0.138,0.216,0.207,0.216,0.118,0.076,west-northwest,3.0,No
2022/05/03,05:20,0.147,0.137,0.214,0.208,0.215,0.118,0.076,northwest,1.8,No
2022/05/03,05:30,0.147,0.138,0.214,0.209,0.215,0.117,0.076,north-northwest,1.7,No
2022/05/03,05:40,0.149,0.137,0.215,0.209,0.217,0.118,0.077,northwest,2.9,No
2022/05/03,05:50,0.147,0.137,0.216,0.209,0.216,0.119,0.076,northwest,2.9,No
2022/05/03,06:00,0.147,0.137,0.215,0.208,0.216,0.118,0.077,north-northwest,2.4,No
2022/05/03,06:10,0.147,0.138,0.215,0.209,0.216,0.119,0.076,north,2.3,No
2022/05/03,06:20,0.148,0.137,0.216,0.209,0.217,0.118,0.076,north-northwest,2.0,No
2022/05/03,06:30,0.148,0.139,0.215,0.208,0.215,0.119,0.076,north,1.5,No
2022/05/03,06:40,0.148,0.137,0.214,0.209,0.216,0.118,0.077,north,2.2,No
2022/05/03,06:50,0.149,0.137,0.214,0.210,0.216,0.119,0.076,north,0.7,No
2022/05/03,07:00,0.148,0.137,0.217,0.209,0.215,0.118,0.075,north-northwest,1.5,No
2022/05/03,07:10,0.148,0.137,0.215,0.208,0.217,0.119,0.076,north,1.1,No
2022/05/03,07:20,0.147,0.137,0.214,0.208,0.216,0.118,0.076,north,1.5,No
2022/05/03,07:30,0.147,0.137,0.214,0.208,0.216,0.119,0.077,northwest,1.3,No
2022/05/03,07:40,0.148,0.136,0.214,0.208,0.216,0.118,0.075,west,0.9,No
2022/05/03,07:50,0.146,0.137,0.215,0.207,0.216,0.118,0.076,-,CALM,No
2022/05/03,08:00,0.149,0.137,0.214,0.206,0.216,0.118,0.076,north-northwest,0.9,No
2022/05/03,08:10,0.147,0.138,0.213,0.210,0.214,0.118,0.076,north-northeast,0.8,No
2022/05/03,08:20,0.147,0.137,0.215,0.207,0.216,0.117,0.076,east-northeast,2.1,No
2022/05/03,08:30,0.147,0.137,0.214,0.209,0.215,0.118,0.077,north,1.2,No
2022/05/03,08:40,0.148,0.137,0.216,0.207,0.217,0.117,0.077,north,1.8,No
2022/05/03,08:50,0.147,0.137,0.215,0.210,0.215,0.119,0.077,east,1.2,No
2022/05/03,09:00,0.148,0.137,0.216,0.208,0.217,0.118,0.076,southeast,2.3,No
2022/05/03,09:10,0.147,0.137,0.214,0.210,0.216,0.118,0.077,east-southeast,2.8,No
2022/05/03,09:20,0.148,0.136,0.217,0.208,0.218,0.118,0.075,east,1.1,No
2022/05/03,09:30,0.147,0.137,0.215,0.209,0.215,0.118,0.077,south-southwest,1.3,No
2022/05/03,09:40,0.148,0.139,0.219,0.210,0.218,0.118,0.076,east,3.0,No
2022/05/03,09:50,0.148,0.138,0.216,0.207,0.216,0.119,0.077,east-northeast,3.1,No
2022/05/03,10:00,0.148,0.138,0.215,0.211,0.217,0.119,0.077,east-northeast,3.6,No
2022/05/03,10:10,0.148,0.138,0.216,0.208,0.216,0.119,0.076,east-northeast,3.3,No
2022/05/03,10:20,0.148,0.139,0.215,0.209,0.215,0.119,0.077,east,2.9,No
2022/05/03,10:30,0.148,0.138,0.217,0.211,0.217,0.118,0.076,east,3.0,No
2022/05/03,10:40,0.149,0.138,0.217,0.209,0.217,0.119,0.076,east,2.4,No
2022/05/03,10:50,0.148,0.138,0.216,0.210,0.217,0.118,0.077,east,3.3,Yes
2022/05/03,11:00,0.148,0.137,0.218,0.209,0.217,0.119,0.077,east-southeast,2.5,No
2022/05/03,11:10,0.148,0.138,0.216,0.211,0.219,0.118,0.077,east-southeast,1.9,No
2022/05/03,11:20,0.149,0.138,0.217,0.210,0.218,0.119,0.076,east-southeast,2.4,No
2022/05/03,11:30,0.148,0.138,0.215,0.210,0.217,0.119,0.076,east-southeast,3.3,No
2022/05/03,11:40,0.148,0.137,0.218,0.212,0.218,0.118,0.077,east,2.9,No
2022/05/03,11:50,0.148,0.138,0.216,0.209,0.217,0.118,0.076,-,CALM,No
2022/05/03,12:00,0.148,0.137,0.216,0.212,0.219,0.120,0.077,north-northeast,1.0,No
2022/05/03,12:10,0.148,0.138,0.218,0.210,0.216,0.120,0.077,west,3.1,No
2022/05/03,12:20,0.147,0.138,0.216,0.212,0.217,0.119,0.076,northwest,5.8,No
2022/05/03,12:30,0.149,0.138,0.219,0.211,0.216,0.120,0.077,northwest,4.9,No
2022/05/03,12:40,0.147,0.138,0.217,0.211,0.216,0.119,0.076,west-northwest,7.4,No
2022/05/03,12:50,0.148,0.138,0.215,0.212,0.217,0.119,0.076,west,8.4,No
2022/05/03,13:00,0.148,0.138,0.217,0.211,0.217,0.118,0.077,west-northwest,9.8,No
2022/05/03,13:10,0.148,0.136,0.218,0.209,0.215,0.120,0.077,west-northwest,7.5,No
2022/05/03,13:20,0.149,0.138,0.215,0.211,0.218,0.119,0.077,west,10.1,No
2022/05/03,13:30,0.149,0.137,0.218,0.211,0.217,0.119,0.077,west,9.8,No
2022/05/03,13:40,0.149,0.138,0.218,0.210,0.215,0.119,0.075,west-northwest,9.2,No
2022/05/03,13:50,0.149,0.138,0.216,0.212,0.218,0.118,0.077,west-northwest,7.9,No
2022/05/03,14:00,0.148,0.137,0.217,0.210,0.220,0.119,0.076,west-northwest,6.4,No
2022/05/03,14:10,0.149,0.138,0.217,0.209,0.216,0.119,0.076,west-northwest,5.6,No
2022/05/03,14:20,0.148,0.138,0.217,0.213,0.215,0.119,0.077,west,8.5,No
2022/05/03,14:30,0.150,0.138,0.216,0.211,0.219,0.119,0.076,west-northwest,6.7,No
2022/05/03,14:40,0.149,0.139,0.217,0.211,0.218,0.119,0.075,west,7.9,No
2022/05/03,14:50,0.149,0.138,0.219,0.214,0.217,0.120,0.077,west-northwest,7.8,No
2022/05/03,15:00,0.149,0.139,0.217,0.211,0.214,0.118,0.076,west-northwest,8.5,No
2022/05/03,15:10,0.148,0.139,0.218,0.211,0.217,0.119,0.076,west-northwest,7.6,No
2022/05/03,15:20,0.150,0.138,0.219,0.213,0.220,0.119,0.077,west,8.6,No
2022/05/03,15:30,0.148,0.138,0.217,0.211,0.218,0.119,0.076,west-northwest,7.9,No
2022/05/03,15:40,0.150,0.137,0.220,0.214,0.215,0.119,0.076,west-northwest,5.6,No
2022/05/03,15:50,0.150,0.139,0.217,0.212,0.219,0.120,0.077,west,9.0,No
2022/05/03,16:00,0.149,0.139,0.220,0.213,0.218,0.120,0.076,west-northwest,7.9,No
2022/05/03,16:10,0.150,0.139,0.218,0.212,0.216,0.120,0.077,west,8.2,No
2022/05/03,16:20,0.149,0.139,0.221,0.214,0.219,0.119,0.076,west,8.1,No
2022/05/03,16:30,0.150,0.140,0.219,0.212,0.219,0.119,0.077,west,9.2,No
2022/05/03,16:40,0.149,0.139,0.219,0.213,0.217,0.120,0.077,west-northwest,6.9,No
2022/05/03,16:50,0.150,0.138,0.219,0.213,0.218,0.120,0.076,west-northwest,5.7,No
2022/05/03,17:00,0.149,0.139,0.220,0.212,0.219,0.121,0.076,west-northwest,4.9,No
2022/05/03,17:10,0.150,0.138,0.219,0.213,0.218,0.119,0.077,west-northwest,5.5,No
2022/05/03,17:20,0.149,0.138,0.218,0.213,0.219,0.121,0.076,west-northwest,7.3,No
2022/05/03,17:30,0.150,0.139,0.219,0.214,0.216,0.119,0.077,west-northwest,7.9,No
2022/05/03,17:40,0.150,0.140,0.219,0.213,0.220,0.120,0.076,west-northwest,5.9,No
2022/05/03,17:50,0.151,0.139,0.218,0.214,0.218,0.119,0.077,west-northwest,6.1,No
2022/05/03,18:00,0.150,0.139,0.219,0.214,0.221,0.120,0.077,northwest,5.7,No
2022/05/03,18:10,0.150,0.140,0.218,0.212,0.219,0.119,0.076,northwest,5.2,No
2022/05/03,18:20,0.149,0.139,0.220,0.213,0.221,0.120,0.077,west-northwest,4.2,No
2022/05/03,18:30,0.150,0.139,0.219,0.213,0.221,0.120,0.077,west-northwest,6.8,No
2022/05/03,18:40,0.150,0.139,0.219,0.211,0.219,0.121,0.077,northwest,7.4,No
2022/05/03,18:50,0.150,0.139,0.219,0.214,0.220,0.120,0.076,northwest,7.0,No
2022/05/03,19:00,0.150,0.139,0.219,0.213,0.219,0.121,0.077,northwest,5.4,No
2022/05/03,19:10,0.151,0.138,0.218,0.214,0.220,0.120,0.077,northwest,3.9,No
2022/05/03,19:20,0.150,0.138,0.220,0.214,0.218,0.121,0.077,-,CALM,No
2022/05/03,19:30,0.151,0.139,0.219,0.212,0.218,0.121,0.077,south,1.1,No
2022/05/03,19:40,0.151,0.139,0.219,0.213,0.219,0.120,0.076,-,CALM,No
2022/05/03,19:50,0.150,0.139,0.220,0.213,0.218,0.120,0.077,west-southwest,1.3,No
2022/05/03,20:00,0.151,0.139,0.219,0.213,0.219,0.119,0.076,south,1.3,No
2022/05/03,20:10,0.150,0.139,0.219,0.214,0.219,0.120,0.077,southeast,1.5,No
2022/05/03,20:20,0.150,0.139,0.220,0.213,0.217,0.119,0.076,southeast,1.9,No
2022/05/03,20:30,0.151,0.139,0.220,0.213,0.218,0.120,0.077,south,2.2,No
2022/05/03,20:40,0.150,0.139,0.220,0.213,0.219,0.119,0.077,south-southwest,2.2,No
2022/05/03,20:50,0.150,0.139,0.219,0.212,0.219,0.120,0.077,southwest,2.8,No
2022/05/03,21:00,0.151,0.138,0.220,0.213,0.220,0.121,0.077,southwest,4.2,No
2022/05/03,21:10,0.150,0.140,0.220,0.215,0.219,0.120,0.077,southwest,4.8,No
2022/05/03,21:20,0.149,0.139,0.221,0.213,0.218,0.120,0.077,west-southwest,3.7,No
2022/05/03,21:30,0.150,0.139,0.220,0.214,0.218,0.120,0.077,west-southwest,3.4,No
2022/05/03,21:40,0.149,0.139,0.220,0.213,0.218,0.121,0.077,west,2.4,No
2022/05/03,21:50,0.150,0.139,0.220,0.213,0.217,0.120,0.076,west-southwest,0.6,No
2022/05/03,22:00,0.150,0.139,0.220,0.214,0.219,0.121,0.077,southwest,0.7,No
2022/05/03,22:10,0.150,0.139,0.220,0.214,0.218,0.120,0.078,southwest,0.6,No
2022/05/03,22:20,0.151,0.139,0.220,0.213,0.218,0.121,0.077,west-southwest,1.1,No
2022/05/03,22:30,0.151,0.138,0.220,0.213,0.219,0.120,0.077,west-southwest,2.9,No
2022/05/03,22:40,0.150,0.139,0.219,0.214,0.218,0.120,0.077,west-southwest,4.8,No
2022/05/03,22:50,0.150,0.139,0.219,0.213,0.217,0.121,0.077,west-southwest,4.2,No
2022/05/03,23:00,0.150,0.139,0.220,0.214,0.219,0.121,0.077,southwest,4.0,No
2022/05/03,23:10,0.149,0.139,0.219,0.215,0.218,0.121,0.076,southwest,4.8,No
2022/05/03,23:20,0.151,0.140,0.219,0.214,0.218,0.121,0.077,southwest,4.3,No
2022/05/03,23:30,0.150,0.139,0.220,0.214,0.219,0.120,0.077,southwest,5.1,No
2022/05/03,23:40,0.150,0.139,0.219,0.214,0.219,0.121,0.078,southwest,4.7,No
2022/05/03,23:50,0.150,0.139,0.220,0.213,0.218,0.120,0.078,southwest,4.7,No
